CMP250 SVVA-MPTO

Flight info

Callsign CMP250
Flight time N/A
Altitude 38000
Route NOSCA DCT KOLEG DCT KONSO DCT ESEDA MEVI1B
Aircraft B38M/M-SDE3FGHIRWY/S

Departure

Time 2026-05-06 22:12
Airport Arturo Michelena International Airport (SVVA)

Arrival

Time N/A
Airport Tocumen International Airport (MPTO)
Time Latitude Longitude Altitude Speed Heading
2026-05-06 21:33 10.15315 -67.92273 1420 ft 0 kts 92°
2026-05-06 22:04 10.15315 -67.92268 1420 ft 4 kts 94°
2026-05-06 22:04 10.15309 -67.92251 1420 ft 0 kts 124°
2026-05-06 22:05 10.15295 -67.92242 1420 ft 7 kts 167°
2026-05-06 22:05 10.15223 -67.92259 1422 ft 13 kts 194°
2026-05-06 22:05 10.15135 -67.92268 1419 ft 8 kts 152°
2026-05-06 22:06 10.15111 -67.92204 1416 ft 12 kts 93°
2026-05-06 22:06 10.15108 -67.92157 1415 ft 8 kts 92°
2026-05-06 22:06 10.15106 -67.92092 1415 ft 10 kts 91°
2026-05-06 22:06 10.15104 -67.92014 1416 ft 12 kts 91°
2026-05-06 22:07 10.15100 -67.91926 1416 ft 14 kts 93°
2026-05-06 22:07 10.15094 -67.91817 1414 ft 17 kts 92°
2026-05-06 22:07 10.15089 -67.91687 1413 ft 8 kts 96°
2026-05-06 22:07 10.15087 -67.91667 1410 ft 0 kts 96°
2026-05-06 22:09 10.15086 -67.91659 1410 ft 3 kts 95°
2026-05-06 22:09 10.15082 -67.91611 1413 ft 11 kts 95°
2026-05-06 22:09 10.15074 -67.91529 1411 ft 9 kts 95°
2026-05-06 22:10 10.15011 -67.91488 1412 ft 17 kts 179°
2026-05-06 22:10 10.14940 -67.91491 1418 ft 9 kts 199°
2026-05-06 22:10 10.14916 -67.91533 1412 ft 0 kts 273°
2026-05-06 22:11 10.14916 -67.91536 1412 ft 2 kts 273°
2026-05-06 22:11 10.14924 -67.91704 1414 ft 57 kts 272°
2026-05-06 22:11 10.14954 -67.92338 1413 ft 118 kts 273°
2026-05-06 22:12 10.15000 -67.93345 1426 ft 166 kts 274°
2026-05-06 22:12 10.15075 -67.94628 1559 ft 195 kts 273°
2026-05-06 22:12 10.15094 -67.96079 1959 ft 211 kts 259°
2026-05-06 22:12 10.14415 -67.97275 2993 ft 187 kts 225°
2026-05-06 22:13 10.13601 -67.98360 3509 ft 206 kts 242°
2026-05-06 22:13 10.12949 -67.99731 3846 ft 226 kts 244°
2026-05-06 22:13 10.12256 -68.01241 4191 ft 250 kts 244°
2026-05-06 22:13 10.11515 -68.02875 4848 ft 261 kts 244°
2026-05-06 22:14 10.10737 -68.04600 5401 ft 276 kts 244°
2026-05-06 22:14 10.09925 -68.06408 6110 ft 284 kts 244°
2026-05-06 22:14 10.09103 -68.08247 6918 ft 289 kts 244°
2026-05-06 22:14 10.08271 -68.10110 7678 ft 292 kts 244°
2026-05-06 22:15 10.07424 -68.12008 8411 ft 297 kts 244°
2026-05-06 22:15 10.06564 -68.13931 9154 ft 301 kts 244°
2026-05-06 22:15 10.05697 -68.15874 9873 ft 305 kts 244°
2026-05-06 22:15 10.04806 -68.17864 10470 ft 315 kts 244°
2026-05-06 22:16 10.03882 -68.19932 10975 ft 328 kts 244°
2026-05-06 22:16 10.02926 -68.22071 11248 ft 336 kts 244°
2026-05-06 22:16 10.01957 -68.24241 11287 ft 338 kts 244°
2026-05-06 22:16 10.01343 -68.26538 11301 ft 340 kts 264°
2026-05-06 22:17 10.01228 -68.28912 11313 ft 342 kts 266°
2026-05-06 22:17 10.01122 -68.31317 11304 ft 342 kts 266°
2026-05-06 22:17 10.01027 -68.33732 11309 ft 342 kts 267°
2026-05-06 22:17 10.00937 -68.36145 11314 ft 342 kts 267°
2026-05-06 22:18 10.00849 -68.38554 11313 ft 342 kts 267°
2026-05-06 22:18 10.00762 -68.40964 11316 ft 342 kts 267°
2026-05-06 22:18 10.00675 -68.43376 11324 ft 341 kts 267°
2026-05-06 22:18 10.00589 -68.45780 11324 ft 343 kts 266°
2026-05-06 22:19 10.00502 -68.48196 11330 ft 343 kts 267°
2026-05-06 22:19 10.00414 -68.50616 11337 ft 342 kts 267°
2026-05-06 22:19 10.00327 -68.53028 11338 ft 342 kts 267°
2026-05-06 22:19 10.00239 -68.55444 11342 ft 343 kts 267°
2026-05-06 22:20 10.00152 -68.57860 11350 ft 342 kts 267°
2026-05-06 22:20 10.00065 -68.60274 11354 ft 342 kts 266°
2026-05-06 22:20 9.99976 -68.62684 11356 ft 342 kts 267°
2026-05-06 22:20 9.99888 -68.65096 11362 ft 342 kts 267°
2026-05-06 22:21 9.99800 -68.67510 11365 ft 343 kts 267°
2026-05-06 22:21 9.99710 -68.69924 11369 ft 342 kts 267°
2026-05-06 22:21 9.99623 -68.72307 11385 ft 342 kts 266°
2026-05-06 22:21 9.99535 -68.74722 11356 ft 342 kts 267°
2026-05-06 22:22 9.99446 -68.77133 11384 ft 343 kts 267°
2026-05-06 22:22 9.99356 -68.79549 11379 ft 342 kts 267°
2026-05-06 22:22 9.99267 -68.81960 11386 ft 342 kts 267°
2026-05-06 22:22 9.99178 -68.84376 11386 ft 342 kts 267°
2026-05-06 22:23 9.99088 -68.86791 11394 ft 343 kts 267°
2026-05-06 22:23 9.98997 -68.89205 11397 ft 343 kts 267°
2026-05-06 22:23 9.98907 -68.91633 11402 ft 343 kts 267°
2026-05-06 22:23 9.98817 -68.94052 11407 ft 343 kts 267°
2026-05-06 22:24 9.98726 -68.96466 11408 ft 343 kts 267°
2026-05-06 22:24 9.98635 -68.98886 11411 ft 343 kts 267°
2026-05-06 22:24 9.98545 -69.01307 11412 ft 343 kts 267°
2026-05-06 22:24 9.98455 -69.03697 11416 ft 343 kts 267°
2026-05-06 22:25 9.98363 -69.06113 11420 ft 343 kts 267°
2026-05-06 22:25 9.98272 -69.08533 11417 ft 343 kts 266°
2026-05-06 22:25 9.98180 -69.10954 11418 ft 343 kts 267°
2026-05-06 22:25 9.98088 -69.13374 11417 ft 344 kts 266°
2026-05-06 22:26 9.97995 -69.15802 11424 ft 343 kts 267°
2026-05-06 22:26 9.97903 -69.18217 11423 ft 343 kts 267°
2026-05-06 22:26 9.97812 -69.20644 11427 ft 344 kts 267°
2026-05-06 22:26 9.97718 -69.23065 11427 ft 344 kts 267°
2026-05-06 22:27 9.97628 -69.25450 11426 ft 344 kts 267°
2026-05-06 22:27 9.97533 -69.27910 11424 ft 343 kts 267°
2026-05-06 22:27 9.97440 -69.30333 11415 ft 344 kts 266°
2026-05-06 22:27 9.97347 -69.32758 11449 ft 343 kts 267°
2026-05-06 22:28 9.97253 -69.35150 11425 ft 344 kts 266°
2026-05-06 22:28 9.97160 -69.37565 11389 ft 343 kts 267°
2026-05-06 22:28 9.97066 -69.39981 11444 ft 344 kts 267°
2026-05-06 22:28 9.96972 -69.42406 11413 ft 344 kts 266°
2026-05-06 22:29 9.96877 -69.44832 11429 ft 344 kts 266°
2026-05-06 22:29 9.96783 -69.47258 11427 ft 344 kts 266°
2026-05-06 22:29 9.96688 -69.49691 11433 ft 345 kts 266°
2026-05-06 22:29 9.96594 -69.52114 11415 ft 345 kts 266°
2026-05-06 22:30 9.96499 -69.54550 11416 ft 345 kts 266°
2026-05-06 22:30 9.96403 -69.56979 11422 ft 345 kts 266°
2026-05-06 22:30 9.96307 -69.59410 11423 ft 345 kts 267°
2026-05-06 22:30 9.96211 -69.61831 11426 ft 344 kts 266°
2026-05-06 22:31 9.96116 -69.64258 11421 ft 344 kts 266°
2026-05-06 22:31 9.96020 -69.66684 11418 ft 344 kts 266°
2026-05-06 22:31 9.95924 -69.69106 11416 ft 344 kts 266°
2026-05-06 22:31 9.95827 -69.71534 11420 ft 345 kts 266°
2026-05-06 22:32 9.95732 -69.73932 11415 ft 345 kts 266°
2026-05-06 22:32 9.95635 -69.76364 11423 ft 345 kts 267°
2026-05-06 22:32 9.95537 -69.78796 11406 ft 345 kts 266°
2026-05-06 22:32 9.95441 -69.81230 11421 ft 345 kts 266°
2026-05-06 22:33 9.95343 -69.83663 11415 ft 345 kts 266°
2026-05-06 22:33 9.95246 -69.86085 11403 ft 344 kts 266°
2026-05-06 22:33 9.95148 -69.88520 11411 ft 345 kts 266°
2026-05-06 22:33 9.95050 -69.90951 11395 ft 346 kts 266°
2026-05-06 22:34 9.94952 -69.93389 11391 ft 346 kts 266°
2026-05-06 22:34 9.94854 -69.95825 11406 ft 345 kts 266°
2026-05-06 22:34 9.94755 -69.98258 11401 ft 345 kts 266°
2026-05-06 22:34 9.94656 -70.00694 11351 ft 345 kts 266°
2026-05-06 22:35 9.94557 -70.03130 11397 ft 345 kts 266°
2026-05-06 22:35 9.94458 -70.05556 11398 ft 345 kts 266°
2026-05-06 22:35 9.94357 -70.07987 11371 ft 345 kts 266°
2026-05-06 22:35 9.94259 -70.10417 11394 ft 344 kts 266°
2026-05-06 22:36 9.94160 -70.12848 11403 ft 345 kts 266°
2026-05-06 22:36 9.94060 -70.15278 11394 ft 345 kts 266°
2026-05-06 22:36 9.93960 -70.17715 11396 ft 345 kts 266°
2026-05-06 22:36 9.93860 -70.20147 11376 ft 345 kts 266°
2026-05-06 22:37 9.93760 -70.22580 11381 ft 345 kts 266°
2026-05-06 22:37 9.93660 -70.24980 11385 ft 345 kts 266°
2026-05-06 22:37 9.93560 -70.27411 11383 ft 345 kts 267°
2026-05-06 22:37 9.93459 -70.29834 11352 ft 343 kts 266°
2026-05-06 22:38 9.93359 -70.32258 11372 ft 344 kts 266°
2026-05-06 22:38 9.93258 -70.34684 11375 ft 344 kts 266°
2026-05-06 22:38 9.93157 -70.37105 11372 ft 344 kts 266°
2026-05-06 22:38 9.93057 -70.39523 11366 ft 344 kts 266°
2026-05-06 22:39 9.92955 -70.41948 11366 ft 344 kts 266°
2026-05-06 22:39 9.92854 -70.44372 11364 ft 343 kts 266°
2026-05-06 22:39 9.92752 -70.46794 11359 ft 344 kts 266°
2026-05-06 22:39 9.92650 -70.49211 11363 ft 343 kts 266°
2026-05-06 22:40 9.92583 -70.50819 11359 ft 343 kts 266°
2026-05-06 22:40 9.92447 -70.54048 11355 ft 343 kts 266°
2026-05-06 22:40 9.92379 -70.55650 11359 ft 343 kts 266°
2026-05-06 22:40 9.92244 -70.58859 11351 ft 343 kts 266°
2026-05-06 22:41 9.92072 -70.62905 11346 ft 342 kts 266°
2026-05-06 22:41 9.91971 -70.65287 11335 ft 342 kts 266°
2026-05-06 22:41 9.91869 -70.67702 11352 ft 342 kts 266°
2026-05-06 22:42 9.91765 -70.70113 11339 ft 342 kts 266°
2026-05-06 22:42 9.91663 -70.72521 11335 ft 342 kts 266°
2026-05-06 22:42 9.91559 -70.74937 11341 ft 342 kts 266°
2026-05-06 22:42 9.91456 -70.77343 11325 ft 342 kts 267°
2026-05-06 22:43 9.91353 -70.79743 11324 ft 341 kts 267°
2026-05-06 22:43 9.91249 -70.82151 11326 ft 341 kts 266°
2026-05-06 22:43 9.91146 -70.84555 11332 ft 341 kts 267°
2026-05-06 22:43 9.91042 -70.86963 11303 ft 341 kts 266°
2026-05-06 22:44 9.90938 -70.89364 11312 ft 341 kts 266°
2026-05-06 22:44 9.90834 -70.91763 11319 ft 341 kts 266°
2026-05-06 22:44 9.90730 -70.94169 11316 ft 341 kts 267°
2026-05-06 22:44 9.90626 -70.96566 11314 ft 341 kts 267°
2026-05-06 22:45 9.90521 -70.98973 11317 ft 341 kts 266°
2026-05-06 22:45 9.90417 -71.01369 11313 ft 340 kts 266°
2026-05-06 22:45 9.90312 -71.03770 11310 ft 340 kts 267°
2026-05-06 22:45 9.90207 -71.06163 11309 ft 340 kts 267°
2026-05-06 22:46 9.90102 -71.08559 11309 ft 340 kts 267°
2026-05-06 22:46 9.89997 -71.10957 11308 ft 340 kts 266°
2026-05-06 22:46 9.89892 -71.13346 11308 ft 340 kts 266°
2026-05-06 22:46 9.89787 -71.15742 11309 ft 340 kts 267°
2026-05-06 22:47 9.89681 -71.18143 11309 ft 339 kts 267°
2026-05-06 22:47 9.89575 -71.20532 11306 ft 339 kts 267°
2026-05-06 22:47 9.89471 -71.22892 11301 ft 339 kts 267°
2026-05-06 22:47 9.89365 -71.25280 11795 ft 338 kts 267°
2026-05-06 22:48 9.89258 -71.27681 12568 ft 344 kts 266°